Location: Lanoux
(43.1180°N, 1.4255°E)
Time: 10:35:01
(UTC+00:00)

Cosmos 2219 - Pass Details

Date: 13 December 2025
Orbit: 830 x 860 km, 71.1° (Epoch: 21 January)

Event Time Altitude Azimuth Distance (km) Brightness Sun altitude
Rises 17:38:49 0° 339° (NNW) 3,435 6.4 -13.9°
Reaches altitude 10° 17:41:22 10° 344° (NNW) 2,499 5.6 -14.3°
Maximum altitude 17:46:58 52° 60° (ENE) 1,067 3.3 -15.3°
Drops below altitude 10° 17:52:32 10° 137° (SE) 2,491 5.4 -16.3°
Sets 17:55:04 0° 142° (SE) 3,424 6.1 -16.7°
